295  
NZUS99 KTBW 202317  
RWRTPA  
FLORIDA REGIONAL WEATHER ROUNDUP  
NATIONAL WEATHER SERVICE TAMPA BAY RUSKIN FL  
700 PM EDT FRI APR 20 2018  
 
NOTE: "FAIR" INDICATES FEW OR NO CLOUDS BELOW 12,000 FEET WITH NO  
SIGNIFICANT WEATHER AND/OR S TO VISIBILITY
.  
 
 
STATION/POSITION
 
 
 
FLZ042-048>051-055-056-060-061-210000-  
EXTRA STATIONS  
 
CITY SKY/WX TMP DP RH WIND PRES REMARKS
 
EVERGLADES CTY NOT AVBL  
CRYSTAL RIVER FAIR 73 61 64 E12G18 30.12S  
SEBRING FAIR 85 54 34 CALM 30.07R  
EGLIN AFB MOSUNNY 75 43 30 NE7 30.16R  
CANAVERAL FAIR 76 64 67 N7 30.09R  
 

 
FLZ001>010-012>015-210000-  
PANHANDLE FLORIDA  
 
CITY SKY/WX TMP DP RH WIND PRES REMARKS
 
PENSACOLA FAIR 71 45 39 S7 30.16S  
PENSACOLA NAS PTSUNNY 69 47 45 SW5 30.16F  
MILTON NAS FAIR 73 47 39 VRB5 30.16S  
CRESTVIEW FAIR 74 44 34 E5 30.18R  
VALPARAISO MOSUNNY 70 47 42 SW6 30.16R  
MARY ESTHER MOSUNNY 68 47 45 S7 30.15S  
PANAMA CITY FAIR 74 49 41 W8 30.14R  
TYNDALL AFB FAIR 70 54 56 SW7 30.16R  
APALACHICOLA FAIR 74 58 57 SE9 30.15S  
 
STATION/POSITION
 
 
29.2N 88.2W  
28.8N 86.0W  
 

 
FLZ011-016>039-210000-  
NORTH FLORIDA  
 
CITY SKY/WX TMP DP RH WIND PRES REMARKS
 
MARIANNA FAIR 73 46 38 NE13 30.17S  
TALLAHASSEE FAIR 76 51 41 E9 30.15S  
PERRY CLOUDY 71 56 59 NE5 30.18R  
CROSS CITY CLOUDY 69 58 67 NE10 30.17R  
GAINESVILLE CLOUDY 65 55 70 NE16 30.21R  
MAYPORT NAS CLOUDY 63 56 78 N21G29 30.21S  
JACKSONVILLE CLOUDY 61 53 75 NE17G28 30.22S  
JAX NAS CLOUDY 63 55 75 NE15G25 30.23R  
JAX CRAIG CLOUDY 62 57 83 NE16G23 30.22R  
ST AUGUSTINE CLOUDY 63 58 83 N18 30.19S HAZE  
 
STATION/POSITION
 
 
KEATON BEACH  
31.4N 80.9W  
ST AUGUSTINE  
 

 
FLZ040-043>046-052-053-057-058-063-210000-  
CENTRAL FLORIDA  
 
CITY SKY/WX TMP DP RH WIND PRES REMARKS
 
OCALA CLOUDY 68 60 75 VRB7 30.16R  
LEESBURG CLOUDY 69 63 81 N17G24 30.15R  
SANFORD CLOUDY 71 63 75 N14 30.13R  
ORLANDO EXEC PTSUNNY 75 64 68 NE17 30.12R  
ORLANDO INTL PTSUNNY 77 65 66 N18 30.10R  
KISSIMMEE CLOUDY 78 66 66 NE13 30.11R  
WINTER HAVEN FAIR 80 66 62 N14 30.10R  
LAKELAND MOSUNNY 81 64 57 N10 30.09R  
BARTOW N/A 81 64 57 N13 30.08  
 

 
FLZ041-047-054-059-064-210000-  
EAST CENTRAL FLORIDA  
 
CITY SKY/WX TMP DP RH WIND PRES REMARKS
 
DAYTONA BEACH CLOUDY 68 65 90 N15G23 30.14R FOG  
JFK SPACE CTR FAIR 75 65 71 NE8 30.10R  
TITUSVILLE MOSUNNY 79 64 61 NE14 30.11R  
PATRICK AFB FAIR 76 66 72 N12 30.09R  
MELBOURNE FAIR 78 65 63 NE10 30.09R  
VERO BEACH FAIR 77 67 71 E9 30.08S  
FT PIERCE FAIR 77 70 79 E10 30.08R  
STUART CLEAR 81 70 69 E8G14 30.09R  
 
STATION/POSITION
 
 
28.9N 78.5W  
 

 
FLZ042-048>051-055-056-060-061-210000-  
WEST CENTRAL FLORIDA  
 
CITY SKY/WX TMP DP RH WIND PRES REMARKS
 
BROOKSVILLE FAIR 77 62 59 E15 30.10S  
TAMPA FAIR 78 61 55 W10 30.09S  
MACDILL AFB FAIR 78 63 59 NW9 30.08F  
ST PETERSBURG FAIR 77 62 59 W10 30.09F  
ST PET-WHITTED FAIR 78 62 57 NW6 30.07S  
SARASOTA FAIR 76 61 59 W8 30.07F  
 
STATION/POSITION
 
 
CEDAR KEY  
VENICE  
 

 
FLZ062-065-066-069-070-075>078-210000-  
SOUTHWEST FLORIDA AND KEYS  
 
CITY SKY/WX TMP DP RH WIND PRES REMARKS
 
PUNTA GORDA FAIR 81 62 52 W13 30.09R  
FT MYERS FAIR 81 60 48 W13 30.07R  
SOUTHWEST INTL FAIR 80 62 54 NW9 30.07R  
NAPLES FAIR 78 64 61 NW8 30.07S  
MARATHON FAIR 80 65 59 NW8 30.06S  
KEY WEST NAS FAIR 77 66 68 N13 30.07R  
KEY WEST INTL FAIR 79 68 69 N8 30.08R  
 
STATION/POSITION
 
 
VENICE  
26.0N 85.6W  
SAND KEY  
SOMBRERO KEY  
LONG KEY  
MOLASSES REEF  
 

 
FLZ067-068-071>074-210000-  
SOUTHEAST FLORIDA  
 
CITY SKY/WX TMP DP RH WIND PRES REMARKS
 
W PALM BEACH FAIR 79 67 66 E10 30.07S  
POMPANO BEACH FAIR 80 68 66 E12 30.06S  
FT LAUDER-EXEC FAIR 81 66 60 E12 30.05F  
FT LAUDERDALE FAIR 79 68 69 E14 30.05S  
PEMBROKE PINES FAIR 82 65 56 E12 30.07S  
OPA LOCKA FAIR 81 64 56 E9 30.06S  
MIAMI FAIR 81 61 50 E10 30.06R  
WEST KENDALL FAIR 81 64 56 E12 30.05S  
HOMESTEAD FAIR 80 68 66 E8 30.04F  
 
STATION/POSITION
 
 
LAKE WORTH  
FOWEY ROCKS  
SETTLEMENT POINT  
 

 
 
 
CLICK HERE TO GO TO PREVIOUS BULLETINS.

The Nexlab FL Page Main Text Page